Temp
22 22 22 22 22 21 20 20 20 20 20 20 20 20 20 20 20 19 19 19 19 20 20 20 20 20 20 20 21 20 20 20 21 21 21 22 22 22 22 22 22 21 21
22 22 22 22 22 22 21 20 20 20 20 20 20 20 20 20 20 20 19 19 19 19 19 19 20 20 21 21 21 20 20 20 20 21 21 21 21 22 22 22 22 21 21
23 22 22 22 22 22 22 22 21 20 20 20 20 20 20 20 20 20 20 19 20 20 19 19 20 19 20 20 21 21 21 20 20 20 20 21 21 21 22 22 21 22 22
21 22 22 22 22 22 22 22 22 21 20 20 20 20 20 20 20 21 20 20 20 20 20 20 20 19 19 20 20 20 20 20 20 20 20 21 21 21 21 21 22 22 23
20 21 22 22 22 22 22 22 22 22 21 21 20 20 20 20 20 21 21 21 20 20 20 20 21 20 20 20 20 20 19 19 19 20 20 20 21 21 21 21 20 21 22
19 20 21 22 22 22 22 22 22 22 22 22 21 20 20 20 20 20 20 20 20 20 20 21 21 21 21 21 20 20 20 19 19 19 19 20 20 21 21 20 20 20 20
19 19 20 20 21 22 22 22 22 22 22 21 22 22 21 21 20 20 20 20 20 20 20 21 21 21 21 21 21 20 20 20 19 19 19 20 20 21 20 20 20 19 19
20 20 21 21 20 21 21 22 22 21 21 22 21 21 22 22 22 21 20 20 20 20 20 20 21 21 21 21 20 20 20 20 20 20 20 21 20 20 20 20 19 19 19
19 19 18 19 19 20 20 21 21 21 21 21 21 21 21 21 22 22 22 21 20 20 21 21 21 21 21 21 20 20 20 21 21 21 21 21 20 21 20 20 19 19 19
17 18 17 18 18 18 19 20 20 20 21 21 21 21 21 22 21 21 21 21 21 21 21 21 21 21 22 21 21 20 20 21 21 21 21 21 20 20 20 19 19 19 19
17 18 18 18 18 18 18 20 19 20 20 21 21 22 22 22 22 22 21 20 21 21 21 21 22 22 22 22 22 21 21 21 21 21 21 20 21 21 20 20 20 19 18
16 18 18 19 19 19 21 21 21 19 19 19 21 21 22 22 22 21 21 21 21 20 21 21 21 22 22 22 22 22 22 21 20 20 20 20 21 22 21 21 20 19 19
17 17 18 19 20 21 21 22 21 19 18 18 19 21 21 22 23 22 22 21 20 20 20 20 20 21 21 22 22 22 22 21 20 20 21 21 22 22 21 21 20 20 19
16 18 18 19 20 21 22 22 22 19 19 19 19 19 19 20 23 22 22 22 21 20 20 20 20 20 20 21 21 21 21 20 20 21 21 21 21 21 21 21 21 20 19
16 17 18 20 20 19 21 23 22 22 21 21 21 20 20 22 23 23 23 23 22 22 21 20 20 20 20 21 22 22 21 20 20 20 21 21 21 21 21 21 20 19 18
15 18 17 18 20 19 19 22 22 21 22 22 21 20 20 22 22 22 21 21 21 20 19 19 20 20 21 21 21 22 21 21 20 20 20 20 20 20 20 20 19 19 19
15 15 15 16 19 18 18 18 19 20 20 20 20 21 20 21 21 21 21 20 20 19 19 19 19 20 21 22 22 21 21 21 21 20 20 19 19 19 19 19 19 19 19
13 14 14 15 17 17 16 17 18 19 19 21 20 20 21 21 21 21 20 20 19 19 19 20 21 22 22 21 21 21 21 21 20 19 19 18 18 19 19 19 19 19 18
12 13 14 13 16 17 17 18 18 18 19 20 21 21 21 21 20 20 20 20 20 20 20 20 20 21 21 20 20 21 21 21 20 19 18 18 18 18 17 18 19 19 19
11 12 12 13 14 15 16 18 19 20 19 19 20 21 21 20 20 20 20 20 20 20 20 20 20 21 20 20 20 21 21 22 22 22 21 20 18 19 20 19 16 16 18
10 12 12 13 12 13 13 14 16 17 18 18 19 20 20 20 20 20 20 20 20 20 20 20 20 20 20 20 20 20 21 19 19 20 19 20 20 21 23 22 22 16 17
10 10 11 11 12 13 13 14 16 16 17 17 17 18 19 19 20 20 19 19 19 19 19 19 20 19 19 19 20 20 18 18 19 18 19 19 20 20 18 16 14 15 16
8 9 10 11 13 13 13 14 15 15 17 17 17 17 17 18 19 18 17 18 18 18 17 18 19 19 19 18 18 18 19 19 19 19 19 18 18 17 16 15 17 16 16
7 8 9 11 12 13 12 13 14 15 15 15 16 16 17 17 17 17 17 16 16 16 17 17 17 17 17 17 17 18 17 16 16 17 18 19 17 15 14 14 15 15 15
7 8 9 10 12 9 9 11 12 13 14 14 15 15 14 15 15 15 15 15 15 15 15 15 16 14 14 14 15 16 16 14 14 15 16 15 14 14 13 14 14 14 14
5 6 7 9 9 10 8 9 9 8 12 12 14 14 13 13 14 13 13 13 14 13 13 11 11 10 15 15 14 12 12 13 13 12 13 13 13 12 12 12 12 12 12
Height
1540 1545 1550 1555 1560 1565 1570 1573 1577 1581 1583 1586 1588 1591 1593 1595 1596 1598 1599 1600 1601 1602 1602 1604 1605 1606 1607 1607 1607 1607 1607 1606 1605 1605 1604 1603 1602 1601 1600 1598 1595 1593 1591
1535 1541 1545 1550 1554 1559 1563 1567 1572 1576 1579 1582 1585 1587 1589 1591 1593 1595 1596 1598 1598 1600 1601 1601 1602 1603 1604 1605 1605 1605 1605 1605 1603 1601 1601 1600 1599 1598 1596 1594 1592 1590 1588
1530 1536 1541 1545 1549 1552 1557 1562 1566 1570 1574 1577 1580 1582 1585 1587 1589 1591 1593 1595 1596 1597 1598 1599 1599 1600 1600 1601 1602 1602 1603 1602 1602 1600 1598 1597 1596 1595 1593 1591 1589 1587 1585
1528 1531 1535 1538 1543 1547 1551 1556 1560 1564 1568 1571 1574 1577 1580 1583 1585 1588 1589 1591 1592 1593 1594 1595 1596 1597 1597 1598 1599 1599 1600 1599 1599 1597 1595 1594 1593 1592 1590 1588 1584 1583 1580
1522 1525 1528 1533 1537 1541 1545 1548 1552 1556 1560 1564 1568 1571 1574 1577 1580 1583 1585 1587 1588 1589 1590 1591 1592 1593 1594 1594 1595 1595 1596 1596 1596 1594 1592 1591 1589 1589 1587 1585 1582 1579 1577
1514 1518 1523 1526 1530 1533 1537 1541 1544 1548 1552 1555 1558 1562 1566 1569 1573 1577 1581 1582 1584 1584 1584 1586 1587 1588 1589 1590 1590 1591 1592 1592 1591 1590 1589 1587 1586 1586 1585 1583 1579 1576 1572
1507 1510 1514 1518 1521 1523 1528 1533 1536 1539 1543 1545 1548 1552 1555 1559 1564 1569 1574 1576 1577 1578 1579 1580 1581 1583 1584 1585 1585 1586 1586 1586 1586 1586 1584 1583 1583 1583 1582 1579 1577 1574 1571
1500 1501 1505 1510 1513 1517 1520 1523 1527 1531 1534 1536 1539 1542 1544 1548 1554 1560 1565 1568 1569 1570 1572 1574 1575 1577 1578 1579 1579 1579 1579 1580 1581 1581 1579 1578 1579 1579 1578 1576 1573 1571 1568
1492 1494 1500 1503 1506 1510 1512 1515 1519 1523 1525 1527 1529 1532 1534 1537 1542 1548 1555 1558 1559 1560 1563 1565 1568 1569 1571 1573 1573 1573 1574 1574 1575 1575 1575 1574 1574 1574 1574 1571 1569 1566 1563
1488 1491 1495 1498 1501 1503 1505 1508 1512 1516 1518 1520 1521 1522 1525 1527 1532 1537 1543 1547 1549 1551 1554 1555 1558 1560 1563 1566 1566 1567 1566 1566 1569 1569 1568 1568 1568 1567 1567 1565 1564 1562 1560
1488 1489 1493 1492 1495 1497 1498 1500 1503 1505 1509 1510 1512 1515 1516 1519 1522 1527 1532 1535 1538 1541 1542 1544 1546 1551 1554 1557 1559 1558 1557 1561 1562 1561 1560 1560 1559 1559 1558 1558 1557 1556 1556
1488 1488 1487 1488 1489 1490 1491 1493 1495 1496 1498 1501 1503 1505 1506 1510 1514 1517 1521 1525 1529 1531 1532 1535 1537 1541 1545 1548 1550 1550 1552 1554 1554 1553 1551 1551 1550 1551 1552 1553 1552 1549 1547
1485 1484 1482 1482 1482 1481 1482 1485 1487 1489 1489 1491 1493 1495 1497 1500 1504 1508 1512 1516 1520 1521 1523 1526 1530 1532 1535 1538 1538 1540 1543 1543 1543 1543 1542 1542 1543 1545 1546 1546 1546 1544 1542
1481 1480 1477 1474 1471 1471 1472 1476 1479 1479 1480 1482 1483 1486 1490 1492 1493 1498 1502 1507 1510 1512 1514 1518 1521 1523 1525 1526 1528 1529 1531 1532 1534 1534 1534 1535 1536 1538 1538 1539 1537 1537 1535
1467 1465 1459 1454 1457 1462 1464 1466 1469 1469 1471 1471 1473 1478 1481 1481 1482 1488 1494 1496 1500 1502 1507 1510 1510 1510 1513 1515 1516 1518 1520 1523 1524 1524 1524 1526 1527 1529 1530 1532 1531 1532 1531
1459 1451 1452 1453 1458 1457 1457 1459 1459 1459 1461 1462 1466 1470 1473 1473 1477 1479 1483 1488 1492 1496 1498 1497 1497 1501 1502 1505 1507 1508 1510 1512 1513 1514 1515 1515 1517 1520 1523 1525 1526 1525 1526
1454 1449 1448 1449 1449 1453 1454 1451 1450 1450 1452 1455 1459 1461 1464 1466 1469 1472 1475 1480 1484 1487 1485 1487 1488 1490 1492 1495 1497 1499 1501 1502 1503 1503 1503 1506 1508 1511 1513 1515 1517 1519 1519
1448 1444 1441 1441 1441 1442 1445 1445 1441 1443 1443 1446 1449 1451 1454 1457 1461 1464 1469 1473 1474 1475 1475 1477 1478 1481 1483 1485 1487 1490 1492 1493 1493 1494 1495 1496 1497 1500 1503 1506 1508 1510 1512
1439 1435 1435 1433 1431 1432 1432 1434 1436 1436 1435 1437 1438 1439 1443 1448 1452 1455 1459 1462 1463 1464 1467 1467 1469 1472 1474 1476 1479 1480 1482 1484 1485 1485 1486 1487 1487 1490 1494 1498 1503 1504 1506
1434 1430 1428 1424 1421 1421 1426 1426 1423 1422 1424 1427 1428 1430 1434 1440 1441 1443 1448 1451 1454 1454 1457 1459 1460 1463 1464 1467 1469 1470 1472 1474 1475 1476 1477 1478 1480 1483 1485 1488 1489 1499 1500
1426 1425 1422 1418 1419 1422 1424 1421 1419 1418 1418 1418 1419 1422 1426 1429 1432 1433 1437 1442 1445 1445 1448 1450 1452 1454 1456 1457 1460 1461 1463 1464 1466 1468 1469 1470 1471 1476 1473 1467 1468 1459 1480
1422 1421 1419 1419 1419 1414 1415 1410 1407 1408 1408 1410 1411 1413 1416 1420 1422 1424 1427 1431 1432 1433 1437 1441 1443 1446 1448 1449 1451 1453 1454 1456 1457 1458 1459 1460 1460 1458 1458 1459 1432 1453 1469
1417 1414 1412 1412 1409 1406 1404 1399 1397 1398 1398 1401 1403 1403 1405 1409 1411 1414 1419 1422 1424 1424 1428 1433 1434 1439 1442 1442 1444 1446 1446 1445 1445 1446 1448 1450 1450 1453 1459 1460 1458 1464 1469
1411 1410 1409 1405 1399 1397 1398 1396 1393 1393 1391 1392 1393 1394 1395 1398 1403 1407 1412 1415 1418 1419 1421 1425 1427 1429 1432 1435 1434 1435 1438 1439 1439 1439 1439 1443 1446 1451 1455 1456 1457 1461 1465
1407 1407 1405 1404 1399 1401 1396 1387 1385 1387 1388 1387 1386 1388 1390 1390 1397 1397 1405 1411 1414 1416 1419 1423 1423 1424 1423 1426 1428 1426 1433 1439 1435 1438 1437 1439 1443 1448 1452 1455 1457 1459 1462
1404 1404 1405 1402 1399 1399 1395 1391 1389 1384 1379 1386 1386 1388 1391 1392 1394 1399 1399 1404 1408 1413 1415 1419 1417 1428 1414 1418 1420 1429 1429 1425 1435 1436 1436 1437 1439 1443 1447 1451 1454 1456 1457
Wind_Speed
45 39 33 30 34 36 36 34 30 22 23 21 20 19 19 18 17 16 15 15 16 16 17 20 20 20 19 18 16 14 13 12 15 15 15 15 15 16 16 15 19 16 19
47 43 38 32 29 34 38 38 36 31 25 25 23 23 21 18 22 21 18 17 17 17 17 18 18 20 22 23 21 20 18 16 17 20 18 16 16 17 20 22 17 18 19
47 47 43 39 36 32 36 39 40 37 33 29 28 28 25 22 21 24 21 18 19 18 19 19 18 17 20 20 22 23 23 21 21 23 23 23 24 22 23 18 18 20 22
49 48 46 43 39 35 31 37 41 42 41 37 33 31 29 27 26 23 22 21 18 19 20 21 22 21 20 20 22 21 18 20 22 24 27 27 26 24 21 23 24 20 20
45 49 48 45 41 36 35 32 37 42 43 43 40 38 34 31 30 30 28 26 24 21 20 21 22 23 22 22 21 21 21 21 22 24 26 27 27 24 22 21 21 22 24
36 43 43 44 46 42 38 37 35 36 41 45 46 45 43 40 36 32 32 32 30 28 26 24 24 24 24 25 25 24 24 24 25 26 27 26 25 23 19 20 22 26 31
29 32 37 40 43 40 37 39 39 39 38 40 46 48 48 47 45 40 38 36 35 33 31 29 28 27 26 26 26 27 28 27 27 26 27 27 26 21 21 23 25 28 30
21 33 36 37 41 39 37 38 36 38 40 40 41 43 48 51 50 47 44 42 42 42 38 36 34 32 29 27 27 27 27 26 26 26 28 27 25 23 25 25 28 31 32
18 19 34 35 39 38 36 35 34 35 35 38 38 40 43 47 49 50 48 47 47 47 44 42 40 37 34 29 27 27 26 26 24 24 24 25 27 27 27 30 30 30 31
12 14 21 27 31 32 30 30 33 36 37 36 36 35 37 42 44 46 45 48 50 49 48 47 43 40 37 33 31 29 30 29 25 25 26 26 26 27 27 27 27 28 25
10 9 16 21 19 20 20 25 32 36 41 39 40 38 34 33 37 41 43 43 45 47 47 46 45 41 39 36 34 34 34 30 30 31 31 29 29 29 27 25 23 22 23
15 10 11 16 23 19 22 26 32 38 41 44 42 42 40 36 34 34 36 41 42 44 47 46 44 41 38 36 35 34 33 33 34 35 36 34 32 28 23 21 22 23 24
21 17 10 16 20 20 22 29 32 37 40 44 44 45 45 39 38 36 35 36 36 40 40 41 41 40 37 35 35 34 31 32 33 34 36 34 30 25 24 24 24 27 25
25 28 22 16 16 20 20 25 29 36 40 41 44 46 45 43 40 40 38 36 36 38 38 37 36 37 38 37 36 34 33 32 32 33 34 33 30 29 26 25 28 25 23
32 32 32 30 27 19 22 24 31 33 34 38 43 44 42 42 40 38 36 37 36 35 34 35 38 40 40 40 39 38 37 34 34 35 35 34 32 30 30 28 27 24 25
37 35 29 29 31 26 23 26 30 31 34 36 36 41 45 41 37 35 33 34 31 29 29 34 38 40 41 40 40 39 38 37 38 37 37 37 37 35 31 27 28 26 25
31 30 29 26 28 30 26 23 25 29 33 37 39 37 42 41 40 36 34 31 29 28 33 34 34 35 36 36 37 37 34 31 30 33 37 39 39 37 34 31 29 28 28
28 29 30 29 29 33 31 26 23 23 33 36 36 39 40 40 40 37 33 32 35 34 37 37 37 35 34 35 34 30 29 31 31 29 29 29 30 29 31 32 31 29 30
28 28 30 29 29 33 36 32 28 29 29 36 38 35 34 40 41 40 38 37 39 37 37 36 36 36 33 33 31 31 32 31 30 25 18 17 17 15 21 28 30 30 27
26 26 27 29 30 35 37 36 32 33 33 34 40 41 36 34 40 45 44 42 41 42 40 35 34 36 34 34 32 32 32 32 32 30 30 27 22 15 19 25 18 38 34
22 23 24 24 26 33 35 31 29 27 32 36 39 38 35 33 34 37 44 43 43 43 40 35 35 31 30 29 25 25 26 25 26 28 28 28 29 34 46 42 67 81 36
17 20 20 21 27 28 30 29 31 33 32 31 35 39 38 38 36 36 37 39 39 36 33 32 30 24 24 23 24 25 27 28 30 34 35 34 38 39 36 31 23 38 21
11 14 15 18 21 25 24 25 29 34 34 34 30 32 37 36 35 31 31 32 33 31 24 22 21 24 25 25 24 25 28 32 31 28 23 24 21 19 19 21 17 17 18
7 8 8 10 15 18 20 19 18 21 21 23 22 29 36 34 30 29 32 30 26 22 21 23 23 24 23 21 19 18 18 16 16 15 17 23 21 23 20 17 15 17 19
6 5 5 4 4 4 7 9 13 17 17 22 28 29 31 32 31 31 22 19 18 16 17 18 18 20 17 13 12 12 16 15 14 17 15 16 17 16 15 15 16 15 14
9 7 5 3 7 2 5 7 6 11 28 26 30 28 25 27 26 25 25 25 23 22 24 22 19 15 19 14 13 14 15 14 13 13 13 14 13 13 12 12 12 11 12
Wind_Direction
223 223 223 224 225 225 226 227 230 233 230 242 240 241 243 244 244 250 248 242 246 235 233 237 238 240 243 249 260 264 268 275 283 282 285 285 292 299 305 301 312 306 312
228 226 226 226 228 229 229 227 229 232 235 233 233 238 243 254 249 251 257 248 246 243 236 239 241 246 245 245 255 257 264 271 281 284 286 289 291 299 304 310 310 308 309
230 230 231 230 229 231 232 232 229 231 233 236 237 242 242 248 254 247 254 256 248 248 241 240 243 247 247 247 251 256 261 266 276 283 288 290 293 301 305 307 307 307 311
234 234 234 235 235 235 238 236 234 233 234 235 239 244 247 249 252 250 250 254 256 251 250 248 247 247 250 250 251 254 261 268 272 276 282 289 294 302 305 312 310 316 319
238 239 240 240 240 239 238 239 241 237 236 237 239 243 247 249 250 252 253 254 259 262 263 261 258 254 255 256 259 258 264 271 276 279 280 285 289 297 304 312 316 316 317
238 241 242 246 244 243 242 243 239 243 240 239 240 242 245 248 251 252 252 255 260 263 264 265 266 264 261 258 259 261 263 267 272 276 280 283 289 297 304 309 310 315 317
239 246 247 244 245 245 247 246 246 243 244 244 243 243 244 246 249 250 253 256 258 261 263 265 265 265 265 265 264 263 263 264 267 273 276 280 288 293 300 301 305 306 309
246 245 243 248 248 246 247 249 250 250 247 247 246 247 247 247 248 248 250 255 258 261 263 266 268 268 265 266 267 265 265 266 266 268 273 278 283 291 295 298 299 303 306
222 228 231 242 246 248 251 252 255 254 254 251 250 249 248 249 249 249 249 250 253 258 261 262 262 267 265 263 262 263 266 267 267 269 272 273 277 282 288 293 293 298 302
233 215 211 220 234 245 254 262 265 266 261 260 256 253 253 252 251 250 250 249 250 254 259 261 259 259 261 259 259 262 266 267 272 273 274 276 280 282 282 282 287 291 295
298 289 243 215 226 230 252 269 268 268 267 262 261 259 257 256 253 252 250 251 250 251 254 257 258 257 257 257 257 260 263 272 276 278 278 278 276 274 271 273 276 280 287
318 279 273 242 243 256 268 271 274 262 260 263 263 262 260 260 258 254 252 251 251 251 252 256 258 260 260 258 256 259 265 273 275 274 276 277 275 266 265 269 274 275 277
319 314 295 261 248 248 257 260 271 257 253 254 259 263 261 261 263 262 258 255 252 252 252 254 258 261 262 260 256 257 262 265 266 265 267 269 270 268 270 271 274 274 273
295 298 315 310 275 252 260 259 265 255 251 252 255 255 258 259 264 264 263 259 255 251 251 253 255 258 260 260 257 256 257 260 261 262 264 266 266 271 273 275 272 270 259
288 290 301 317 315 296 268 270 258 260 263 262 261 256 259 264 269 273 273 269 265 261 256 251 250 250 253 254 255 256 257 257 258 257 258 261 263 263 274 275 266 262 253
292 287 302 302 303 299 287 265 264 258 265 268 269 263 265 273 275 276 277 276 277 273 262 251 250 252 254 256 260 261 261 263 262 261 259 257 259 264 271 268 264 252 252
287 289 293 297 294 297 287 275 269 267 260 260 261 263 261 266 269 270 272 274 271 267 258 255 249 249 251 255 259 265 268 268 268 264 263 265 267 266 262 264 258 247 246
283 284 288 289 286 290 292 280 267 262 265 263 261 260 260 261 261 263 264 262 256 252 254 251 253 253 253 256 259 260 258 262 268 272 273 272 267 263 261 253 247 244 248
284 285 284 285 281 280 282 284 275 266 258 264 269 265 261 260 257 254 253 252 255 252 251 253 253 255 256 255 254 257 260 265 268 264 263 261 244 240 252 261 255 252 251
275 282 282 286 284 282 278 279 282 275 269 266 266 267 266 265 257 251 249 247 250 254 252 250 253 252 252 257 259 259 263 263 261 259 257 245 227 242 258 264 290 284 252
275 277 273 280 283 271 270 272 277 280 267 262 262 263 265 265 264 257 255 254 252 251 250 253 254 249 248 251 251 256 257 249 253 251 245 245 255 278 268 262 271 282 235
273 272 276 277 281 273 268 272 277 270 268 269 261 261 259 258 257 259 255 254 251 245 239 236 240 240 238 240 244 244 238 241 254 254 248 262 269 269 261 279 232 212 212
267 269 284 285 284 269 269 270 279 275 272 266 261 259 255 250 244 250 244 235 222 217 210 211 222 232 233 232 235 245 253 256 259 255 252 246 237 216 243 220 229 221 229
247 254 269 293 304 273 260 253 244 256 263 253 225 226 233 229 235 221 207 199 190 191 199 203 207 213 225 227 228 235 238 234 223 223 229 230 238 228 222 216 213 211 217
176 209 234 250 356 303 231 220 194 176 193 200 198 187 173 166 170 173 176 185 189 187 191 194 206 197 193 196 196 212 235 220 228 245 233 209 200 214 218 219 222 217 222
115 122 125 150 128 129 82 111 150 146 151 160 171 169 169 165 168 167 162 169 175 183 186 176 166 183 198 226 208 191 191 195 221 202 197 201 205 216 220 226 234 240 243